Flag for Turkey Weather past 2 weeks in Istanbul, Turkey

50 °F


Feels Like: 47 °F
Forecast: 49 / 57 °F
Wind: 8 mph from Northwest

Location: Istanbul Ataturk Airport

Current Time: Nov 30, 2015 at 10:42:46 AM

Latest Report: Nov 30, 2015 at 9:50 AM

Visibility: 10 mi

Pressure: 30.18 "Hg

Humidity: 58%

Dew point: 36 °F

Location of IstanbulLocation

Historic Weather in Istanbul — Graph


Istanbul temperature yesterday

Maximum temperature yesterday: 55 °F (at 12:50 AM)
Minimum temperature yesterday: 48 °F (at 11:50 PM)
Average temperature yesterday: 52 °F

Past Weeks' High & Low Weather Summary

High70 °F (Nov 22, 11:50 AM)94% (Nov 19, 5:20 PM)30.21 "Hg (Nov 19, 5:20 PM)
Low45 °F (Nov 30, 6:20 AM)42% (Nov 26, 2:50 AM)29.59 "Hg (Nov 26, 6:50 AM)
Average60 °F71%29.96 "Hg
* Reported Nov 15 9:20 AM — Nov 30 9:20 AM, Istanbul, Weather by CustomWeather, © 2015

Note: Actual official high and low records may vary slightly from our data, if they occured in-between our weather recording intervals... More about our weather records


Istanbul weather history for previous 24 hours

Time TempWeatherWind HumidityBarometerVisibility
9:20 AM
Mon, Nov 30
48 °FSunny.9 mph62%30.18 "Hg10 mi
8:50 AM46 °FSunny.13 mph62%30.18 "Hg10 mi
8:20 AM46 °FSunny.9 mph62%30.18 "Hg10 mi
7:50 AM45 °FSunny.10 mph66%30.18 "Hg10 mi
7:20 AM45 °FSunny.8 mph66%30.15 "Hg10 mi
6:50 AM45 °FClear.9 mph66%30.18 "Hg10 mi
6:20 AM45 °FClear.9 mph66%30.15 "Hg10 mi
5:20 AM46 °FPassing clouds.9 mph62%30.15 "HgN/A
4:50 AM46 °FPassing clouds.12 mph62%30.15 "HgN/A
4:20 AM46 °FPassing clouds.13 mph62%30.15 "HgN/A
3:50 AM46 °FPassing clouds.12 mph62%30.15 "HgN/A
2:50 AM46 °FPassing clouds.13 mph66%30.12 "HgN/A
2:20 AM48 °FPassing clouds.10 mph62%30.12 "HgN/A
1:50 AM48 °FPassing clouds.12 mph66%30.12 "HgN/A
1:20 AM48 °FPassing clouds.10 mph66%30.12 "HgN/A
12:50 AM48 °FPassing clouds.12 mph66%30.12 "HgN/A
12:20 AM48 °FPassing clouds.9 mph66%30.12 "HgN/A
11:50 PM
Sun, Nov 29
48 °FPartly cloudy.7 mph71%30.12 "HgN/A
11:20 PM50 °FPartly cloudy.9 mph62%30.12 "HgN/A
10:50 PM50 °FPartly cloudy.5 mph71%30.12 "HgN/A
10:20 PM50 °FPartly cloudy.6 mph67%30.12 "HgN/A
9:50 PM50 °FPartly cloudy.8 mph67%30.12 "HgN/A
9:20 PM50 °FPartly cloudy.8 mph67%30.12 "HgN/A
8:50 PM50 °FPartly cloudy.9 mph67%30.12 "HgN/A
8:20 PM54 °FPartly cloudy.7 mph63%30.09 "HgN/A
7:50 PM52 °FPartly cloudy.8 mph62%30.09 "HgN/A
7:20 PM52 °FPartly cloudy.8 mph62%30.09 "HgN/A
6:50 PM52 °FPartly cloudy.7 mph62%30.09 "HgN/A
6:20 PM52 °FPartly cloudy.10 mph67%30.07 "HgN/A
5:50 PM50 °FPartly cloudy.9 mph71%30.07 "HgN/A
5:20 PM52 °FPartly cloudy.8 mph72%30.07 "HgN/A
4:50 PM52 °FPartly cloudy.7 mph72%30.07 "HgN/A
4:20 PM52 °FBroken clouds.8 mph77%30.07 "HgN/A
3:50 PM54 °FBroken clouds.6 mph72%30.07 "HgN/A
3:20 PM54 °FBroken clouds.5 mph72%30.07 "HgN/A
2:50 PM54 °FBroken clouds.5 mph72%30.04 "HgN/A
2:20 PM54 °FBroken clouds.8 mph72%30.04 "HgN/A
1:50 PM54 °FBroken clouds.9 mph77%30.04 "HgN/A
1:20 PM54 °FBroken clouds.6 mph77%30.04 "HgN/A
12:50 PM54 °FBroken clouds.5 mph72%30.04 "HgN/A
12:20 PM54 °FBroken clouds.5 mph77%30.04 "HgN/A
11:50 AM54 °FBroken clouds.5 mph77%30.04 "Hg4 mi
11:20 AM52 °FBroken clouds.5 mph82%30.04 "HgN/A
10:50 AM52 °FBroken clouds.6 mph82%30.04 "Hg5 mi
10:20 AM52 °FBroken clouds.7 mph88%30.04 "Hg5 mi
Weather by CustomWeather, © 2015

See weather overviewHow to use our weather pages